Minchumina, AK

3:45 PM AKDT on June 25, 2017 (GMT -0800)
Minchumina

Weather History for PAMH - November, 2012

Change the Weather History Date:

Tuesday, November 6, 2012

  Actual Average Record
Temperature  
Mean Temperature 4 °F -  
Max Temperature 10 °F 13 °F 33 °F (2002)
Min Temperature -4 °F 4 °F -14 °F (2005)
Degree Days  
Heating Degree Days 61    
Moisture  
Dew Point -4 °F    
Average Humidity 71    
Maximum Humidity 85    
Minimum Humidity 57    
Precipitation  
Precipitation 0.00 in - - ()
Sea Level Pressure  
Sea Level Pressure 30.30 in    
Wind  
Wind Speed 1 mph (NNW)    
Max Wind Speed 5 mph    
Max Gust Speed -    
Visibility 10 miles    
Events      
Averages and records for this station are not official NWS values.
T = Trace of Precipitation, MM = Missing Value Source: NWS Daily Summary

Daily Weather History Graph

Daily Weather History Graph

Search for Another Location

Airport or City:

Trip Planner

Search our weather history database for the weather conditions in past years. The results will help you decide how hot, cold, wet, or windy it might be!

Date:

Astronomy

Nov. 06, 2012 Rise Set
Actual Time 9:09 AM AKST 4:35 PM AKST
Civil Twilight 8:14 AM AKST 5:30 PM AKST
Nautical Twilight 7:16 AM AKST 6:28 PM AKST
Astronomical Twilight 6:21 AM AKST 7:23 PM AKST
Moon 11:57 PM AKST (11/6) 2:42 PM AKST (11/6)
Length of Visible Light 9h 16m
Length of Day
7h 26m
Waning Gibbous, 51% of the Moon is Illuminated
Nov 6
Waning Gibbous
Nov 6
Last Quarter
Nov 13
New
Nov 20
First Quarter
Nov 28
Full

Hourly Weather History & Observations

Time (AKST) Temp. Windchill Dew Point Humidity Pressure Visibility Wind Dir Wind Speed Gust Speed Precip Events Conditions
12:16 AM 5.0 °F -2.1 °F -2.2 °F 72% 30.18 in 10.0 mi NNE 3.5 mph - N/A   Clear
12:36 AM 5.0 °F -2.1 °F -2.2 °F 72% 30.18 in 10.0 mi NNE 3.5 mph - N/A   Clear
12:56 AM 3.2 °F -4.2 °F -4.0 °F 72% 30.18 in 10.0 mi NNE 3.5 mph - N/A   Clear
1:16 AM 3.2 °F - -4.0 °F 72% 30.19 in 10.0 mi Calm Calm - N/A   Clear
1:36 AM 3.2 °F - -5.8 °F 66% 30.19 in 10.0 mi Calm Calm - N/A   Clear
1:56 AM 3.2 °F - -4.0 °F 72% 30.20 in 10.0 mi Calm Calm - N/A   Clear
2:16 AM 3.2 °F - -5.8 °F 66% 30.20 in 10.0 mi Calm Calm - N/A   Clear
2:36 AM 1.4 °F - -5.8 °F 72% 30.21 in 10.0 mi Calm Calm - N/A   Clear
2:56 AM 3.2 °F - -4.0 °F 72% 30.21 in 10.0 mi Calm Calm - N/A   Clear
3:16 AM 3.2 °F - -5.8 °F 66% 30.22 in 10.0 mi Calm Calm - N/A   Clear
3:36 AM 3.2 °F - -4.0 °F 72% 30.22 in 10.0 mi Calm Calm - N/A   Clear
3:56 AM 3.2 °F - -4.0 °F 72% 30.22 in 10.0 mi Calm Calm - N/A   Clear
4:16 AM 3.2 °F - -5.8 °F 66% 30.23 in 10.0 mi Calm Calm - N/A   Clear
4:36 AM 3.2 °F - -5.8 °F 66% 30.23 in 10.0 mi Calm Calm - N/A   Clear
4:56 AM 1.4 °F - -5.8 °F 72% 30.23 in 10.0 mi Calm Calm - N/A   Clear
5:16 AM 3.2 °F - -4.0 °F 72% 30.23 in 10.0 mi Calm Calm - N/A   Clear
5:36 AM 3.2 °F - -5.8 °F 66% 30.24 in 10.0 mi Calm Calm - N/A   Clear
5:56 AM 3.2 °F - -5.8 °F 66% 30.24 in 10.0 mi Calm Calm - N/A   Clear
6:16 AM 3.2 °F - -4.0 °F 72% 30.25 in 10.0 mi Calm Calm - N/A   Clear
6:36 AM 1.4 °F - -5.8 °F 72% 30.25 in 10.0 mi Calm Calm - N/A   Clear
6:56 AM 1.4 °F - -5.8 °F 72% 30.26 in 10.0 mi Calm Calm - N/A   Clear
7:16 AM 1.4 °F - -5.8 °F 72% 30.26 in 10.0 mi Calm Calm - N/A   Clear
7:36 AM -2.2 °F - -7.6 °F 78% 30.26 in 10.0 mi Calm Calm - N/A   Clear
7:56 AM -0.4 °F - -5.8 °F 78% 30.26 in 10.0 mi Calm Calm - N/A   Clear
8:16 AM -0.4 °F - -5.8 °F 78% 30.27 in 10.0 mi Calm Calm - N/A   Clear
8:36 AM -2.2 °F -10.4 °F -7.6 °F 78% 30.27 in 10.0 mi WNW 3.5 mph - N/A   Clear
8:56 AM -2.2 °F -12.5 °F -5.8 °F 85% 30.28 in 10.0 mi WNW 4.6 mph - N/A   Clear
9:16 AM -2.2 °F -10.4 °F -7.6 °F 78% 30.28 in 10.0 mi WNW 3.5 mph - N/A   Clear
9:36 AM -0.4 °F -8.3 °F -5.8 °F 78% 30.28 in 10.0 mi WNW 3.5 mph - N/A   Clear
9:56 AM -0.4 °F -8.3 °F -5.8 °F 78% 30.29 in 10.0 mi WNW 3.5 mph - N/A   Clear
10:16 AM -0.4 °F -8.3 °F -4.0 °F 85% 30.29 in 10.0 mi WNW 3.5 mph - N/A   Clear
10:36 AM 1.4 °F -6.2 °F -4.0 °F 78% 30.30 in 10.0 mi NW 3.5 mph - N/A   Clear
10:56 AM 3.2 °F - -2.2 °F 78% 30.30 in 10.0 mi Calm Calm - N/A   Clear
11:16 AM 6.8 °F - -2.2 °F 67% 30.30 in 10.0 mi Calm Calm - N/A   Clear
11:36 AM 6.8 °F -0.1 °F -0.4 °F 72% 30.30 in 10.0 mi NE 3.5 mph - N/A   Clear
11:56 AM 6.8 °F - -2.2 °F 67% 30.31 in 10.0 mi Calm Calm - N/A   Clear
12:16 PM 8.6 °F - -2.2 °F 62% 30.32 in 10.0 mi Calm Calm - N/A   Clear
12:36 PM 6.8 °F - -4.0 °F 61% 30.32 in 10.0 mi Calm Calm - N/A   Clear
12:56 PM 6.8 °F - -2.2 °F 67% 30.32 in 10.0 mi Calm Calm - N/A   Clear
1:16 PM 8.6 °F - -2.2 °F 62% 30.32 in 10.0 mi Calm Calm - N/A   Clear
1:36 PM 8.6 °F - -0.4 °F 67% 30.32 in 10.0 mi Calm Calm - N/A   Clear
1:56 PM 10.4 °F - -2.2 °F 57% 30.32 in 10.0 mi Calm Calm - N/A   Clear
2:16 PM 10.4 °F - -0.4 °F 62% 30.33 in 10.0 mi Calm Calm - N/A   Clear
2:36 PM 8.6 °F - -2.2 °F 62% 30.33 in 10.0 mi Calm Calm - N/A   Clear
2:56 PM 8.6 °F - -2.2 °F 62% 30.33 in 10.0 mi Calm Calm - N/A   Clear
3:16 PM 8.6 °F - -2.2 °F 62% 30.33 in 10.0 mi Calm Calm - N/A   Clear
3:36 PM 8.6 °F - -2.2 °F 62% 30.33 in 10.0 mi Calm Calm - N/A   Clear
3:56 PM 8.6 °F - -2.2 °F 62% 30.33 in 10.0 mi Calm Calm - N/A   Clear
4:16 PM 6.8 °F - -2.2 °F 67% 30.34 in 10.0 mi Calm Calm - N/A   Clear
4:36 PM 5.0 °F - -4.0 °F 66% 30.34 in 10.0 mi Calm Calm - N/A   Clear
4:56 PM 3.2 °F - -4.0 °F 72% 30.34 in 10.0 mi Calm Calm - N/A   Clear
5:16 PM 3.2 °F - -4.0 °F 72% 30.35 in 10.0 mi Calm Calm - N/A   Clear
5:36 PM 3.2 °F - -4.0 °F 72% 30.35 in 10.0 mi Calm Calm - N/A   Clear
5:56 PM 3.2 °F - -4.0 °F 72% 30.36 in 10.0 mi Calm Calm - N/A   Clear
6:16 PM 3.2 °F -4.2 °F -4.0 °F 72% 30.36 in 10.0 mi North 3.5 mph - N/A   Clear
6:36 PM 3.2 °F - -2.2 °F 78% 30.36 in 10.0 mi Calm Calm - N/A   Clear
6:56 PM 5.0 °F - -2.2 °F 72% 30.36 in 10.0 mi Calm Calm - N/A   Clear
7:16 PM 3.2 °F - -2.2 °F 78% 30.36 in 10.0 mi Calm Calm - N/A   Clear
7:36 PM 3.2 °F - -2.2 °F 78% 30.37 in 10.0 mi Calm Calm - N/A   Clear
7:56 PM 3.2 °F - -5.8 °F 66% 30.38 in 10.0 mi Calm Calm - N/A   Clear
8:16 PM 3.2 °F - -4.0 °F 72% 30.38 in 10.0 mi Calm Calm - N/A   Clear
8:36 PM 1.4 °F - -5.8 °F 72% 30.38 in 10.0 mi Calm Calm - N/A   Clear
8:56 PM 3.2 °F - -4.0 °F 72% 30.38 in 10.0 mi Calm Calm - N/A   Clear
9:16 PM 1.4 °F - -5.8 °F 72% 30.39 in 10.0 mi Calm Calm - N/A   Clear
9:36 PM 3.2 °F - -4.0 °F 72% 30.39 in 10.0 mi Calm Calm - N/A   Clear
9:56 PM 1.4 °F - -5.8 °F 72% 30.39 in 10.0 mi Calm Calm - N/A   Clear
10:16 PM 3.2 °F - -2.2 °F 78% 30.39 in 10.0 mi Calm Calm - N/A   Clear
10:36 PM 1.4 °F - -5.8 °F 72% 30.40 in 10.0 mi Calm Calm - N/A   Clear
10:56 PM 1.4 °F - -5.8 °F 72% 30.40 in 10.0 mi Calm Calm - N/A   Clear
11:16 PM 1.4 °F - -4.0 °F 78% 30.40 in 10.0 mi Calm Calm - N/A   Clear
11:56 PM -4.0 °F - -9.4 °F 78% 30.41 in 10.0 mi Calm Calm - N/A   Clear